QPF
0.00 0.00 0.00 0.00 0.00 0.00 0.00 0.00 0.00 0.00 0.00 0.00 0.00 0.00 0.00 0.00 0.00 0.00 0.00 0.00 0.00 0.00 0.00 0.00 0.00 0.01 0.01 0.01 0.02 0.02 0.01 0.01 0.00 0.00 0.01 0.00 0.00 0.00 0.00 0.00 0.01 0.01 0.00 0.00 0.00 0.00 0.00 0.00 0.00
0.00 0.00 0.00 0.00 0.00 0.00 0.00 0.00 0.00 0.00 0.00 0.00 0.00 0.00 0.00 0.00 0.00 0.00 0.00 0.00 0.00 0.00 0.00 0.00 0.00 0.01 0.01 0.01 0.02 0.01 0.01 0.01 0.01 0.01 0.01 0.01 0.00 0.00 0.00 0.00 0.00 0.00 0.00 0.00 0.00 0.00 0.00 0.00 0.00
0.00 0.00 0.00 0.00 0.00 0.00 0.00 0.00 0.00 0.00 0.00 0.00 0.00 0.00 0.00 0.00 0.00 0.00 0.00 0.00 0.00 0.00 0.00 0.00 0.00 0.01 0.01 0.01 0.01 0.02 0.01 0.01 0.01 0.01 0.01 0.00 0.00 0.00 0.00 0.00 0.00 0.00 0.00 0.00 0.00 0.00 0.00 0.00 0.00
0.00 0.00 0.00 0.00 0.00 0.00 0.00 0.00 0.00 0.00 0.00 0.00 0.00 0.00 0.00 0.00 0.00 0.00 0.00 0.00 0.00 0.00 0.00 0.00 0.00 0.01 0.01 0.01 0.01 0.02 0.01 0.01 0.01 0.01 0.01 0.00 0.00 0.00 0.00 0.00 0.00 0.00 0.00 0.00 0.00 0.00 0.00 0.00 0.00
0.00 0.00 0.00 0.00 0.00 0.00 0.00 0.00 0.00 0.00 0.00 0.00 0.00 0.00 0.00 0.00 0.00 0.00 0.00 0.00 0.00 0.00 0.00 0.00 0.00 0.01 0.01 0.01 0.01 0.02 0.01 0.01 0.01 0.01 0.01 0.00 0.00 0.00 0.00 0.00 0.00 0.00 0.00 0.00 0.00 0.00 0.00 0.00 0.00
0.00 0.00 0.00 0.00 0.00 0.00 0.00 0.00 0.00 0.00 0.00 0.00 0.00 0.00 0.00 0.00 0.00 0.00 0.00 0.00 0.00 0.00 0.00 0.00 0.00 0.01 0.01 0.01 0.01 0.02 0.01 0.01 0.01 0.01 0.01 0.00 0.00 0.00 0.00 0.00 0.00 0.00 0.00 0.00 0.00 0.00 0.00 0.00 0.00
0.00 0.00 0.00 0.00 0.00 0.00 0.00 0.00 0.00 0.00 0.00 0.00 0.00 0.00 0.00 0.00 0.00 0.00 0.00 0.00 0.00 0.00 0.00 0.01 0.01 0.01 0.01 0.01 0.01 0.01 0.01 0.01 0.01 0.01 0.01 0.01 0.00 0.00 0.00 0.00 0.00 0.00 0.00 0.00 0.00 0.00 0.00 0.00 0.00
0.00 0.00 0.00 0.00 0.00 0.00 0.00 0.00 0.00 0.00 0.00 0.00 0.00 0.00 0.00 0.00 0.00 0.00 0.00 0.00 0.00 0.00 0.00 0.01 0.01 0.01 0.01 0.01 0.01 0.01 0.01 0.01 0.01 0.01 0.01 0.01 0.00 0.00 0.00 0.00 0.00 0.00 0.00 0.00 0.00 0.00 0.00 0.00 0.00
0.00 0.00 0.00 0.00 0.00 0.00 0.00 0.00 0.00 0.00 0.00 0.00 0.00 0.00 0.00 0.00 0.00 0.00 0.00 0.00 0.00 0.00 0.00 0.01 0.01 0.02 0.02 0.01 0.01 0.00 0.00 0.00 0.01 0.00 0.00 0.00 0.01 0.01 0.00 0.00 0.00 0.00 0.00 0.00 0.00 0.00 0.00 0.00 0.00
0.00 0.00 0.00 0.00 0.00 0.00 0.00 0.00 0.00 0.00 0.00 0.00 0.00 0.00 0.00 0.00 0.00 0.00 0.00 0.00 0.00 0.00 0.00 0.00 0.01 0.02 0.01 0.01 0.01 0.01 0.01 0.01 0.01 0.01 0.01 0.01 0.01 0.01 0.00 0.00 0.00 0.00 0.00 0.00 0.00 0.00 0.00 0.00 0.00
0.00 0.00 0.00 0.00 0.00 0.00 0.00 0.00 0.00 0.00 0.00 0.00 0.00 0.00 0.00 0.00 0.00 0.00 0.00 0.00 0.00 0.00 0.00 0.00 0.01 0.01 0.01 0.01 0.01 0.01 0.01 0.01 0.01 0.01 0.00 0.00 0.01 0.01 0.01 0.00 0.00 0.00 0.00 0.00 0.00 0.00 0.00 0.00 0.00
0.00 0.00 0.00 0.00 0.00 0.00 0.00 0.00 0.00 0.00 0.00 0.00 0.00 0.00 0.00 0.00 0.00 0.00 0.00 0.00 0.00 0.00 0.00 0.00 0.01 0.01 0.01 0.01 0.01 0.01 0.00 0.00 0.00 0.00 0.00 0.00 0.00 0.00 0.00 0.00 0.00 0.00 0.00 0.00 0.00 0.00 0.00 0.00 0.00
0.00 0.00 0.00 0.00 0.00 0.00 0.00 0.00 0.00 0.00 0.00 0.00 0.00 0.00 0.00 0.00 0.00 0.00 0.00 0.00 0.00 0.00 0.00 0.00 0.01 0.01 0.01 0.01 0.01 0.00 0.00 0.00 0.00 0.00 0.00 0.00 0.00 0.00 0.00 0.00 0.00 0.00 0.00 0.00 0.00 0.00 0.00 0.00 0.00
0.00 0.00 0.00 0.00 0.00 0.00 0.00 0.00 0.00 0.00 0.00 0.00 0.00 0.00 0.00 0.00 0.00 0.00 0.00 0.00 0.00 0.00 0.00 0.00 0.00 0.00 0.01 0.01 0.01 0.00 0.00 0.00 0.00 0.00 0.00 0.00 0.00 0.00 0.00 0.00 0.00 0.00 0.00 0.00 0.00 0.00 0.00 0.00 0.00
0.00 0.00 0.00 0.00 0.00 0.00 0.00 0.00 0.00 0.00 0.00 0.00 0.00 0.00 0.00 0.00 0.00 0.00 0.00 0.00 0.00 0.00 0.00 0.00 0.00 0.00 0.01 0.01 0.01 0.00 0.00 0.00 0.00 0.00 0.00 0.00 0.00 0.00 0.00 0.00 0.00 0.00 0.00 0.00 0.00 0.00 0.00 0.00 0.00
0.00 0.00 0.00 0.00 0.00 0.00 0.00 0.00 0.00 0.00 0.00 0.00 0.00 0.00 0.00 0.00 0.00 0.00 0.00 0.00 0.00 0.00 0.00 0.00 0.00 0.00 0.00 0.01 0.01 0.01 0.00 0.00 0.00 0.00 0.00 0.00 0.00 0.00 0.00 0.00 0.00 0.00 0.00 0.00 0.00 0.00 0.00 0.00 0.00
0.00 0.00 0.00 0.00 0.00 0.00 0.00 0.00 0.00 0.00 0.00 0.00 0.00 0.00 0.00 0.00 0.00 0.00 0.00 0.00 0.00 0.00 0.00 0.00 0.00 0.00 0.00 0.01 0.01 0.01 0.01 0.00 0.00 0.00 0.00 0.00 0.00 0.00 0.00 0.00 0.00 0.00 0.00 0.00 0.00 0.00 0.00 0.00 0.00
0.00 0.00 0.00 0.00 0.00 0.00 0.00 0.00 0.00 0.00 0.00 0.00 0.00 0.00 0.00 0.00 0.00 0.00 0.00 0.00 0.00 0.00 0.00 0.00 0.00 0.00 0.00 0.01 0.01 0.01 0.01 0.00 0.00 0.00 0.00 0.00 0.00 0.00 0.00 0.00 0.00 0.00 0.00 0.00 0.00 0.00 0.00 0.00 0.00
0.00 0.00 0.00 0.00 0.00 0.00 0.00 0.00 0.00 0.00 0.00 0.00 0.00 0.00 0.00 0.00 0.00 0.00 0.00 0.00 0.00 0.00 0.00 0.00 0.00 0.00 0.00 0.00 0.01 0.01 0.00 0.00 0.00 0.00 0.00 0.00 0.00 0.00 0.00 0.00 0.00 0.00 0.00 0.00 0.01 0.01 0.00 0.00 0.00
0.00 0.00 0.00 0.00 0.00 0.00 0.00 0.00 0.00 0.00 0.00 0.00 0.00 0.00 0.00 0.00 0.00 0.00 0.00 0.00 0.00 0.00 0.00 0.00 0.00 0.00 0.00 0.00 0.00 0.00 0.00 0.00 0.00 0.00 0.00 0.00 0.00 0.00 0.00 0.00 0.00 0.00 0.00 0.00 0.00 0.00 0.00 0.00 0.00
0.00 0.00 0.00 0.00 0.00 0.00 0.00 0.00 0.00 0.00 0.00 0.00 0.00 0.00 0.00 0.00 0.00 0.00 0.00 0.00 0.00 0.00 0.00 0.00 0.00 0.00 0.00 0.00 0.00 0.00 0.00 0.00 0.00 0.00 0.00 0.00 0.00 0.00 0.00 0.00 0.00 0.00 0.00 0.00 0.00 0.00 0.00 0.00 0.00
0.00 0.00 0.00 0.00 0.00 0.00 0.00 0.00 0.00 0.00 0.00 0.00 0.00 0.00 0.00 0.00 0.00 0.00 0.00 0.00 0.00 0.00 0.00 0.00 0.00 0.00 0.00 0.00 0.00 0.00 0.00 0.00 0.00 0.00 0.00 0.00 0.00 0.00 0.00 0.00 0.00 0.00 0.00 0.00 0.00 0.00 0.00 0.00 0.00
0.00 0.00 0.00 0.00 0.00 0.00 0.00 0.00 0.00 0.00 0.00 0.00 0.00 0.00 0.00 0.00 0.00 0.00 0.00 0.00 0.00 0.00 0.00 0.00 0.00 0.00 0.00 0.00 0.00 0.00 0.00 0.00 0.00 0.00 0.00 0.00 0.00 0.00 0.00 0.00 0.00 0.00 0.00 0.00 0.00 0.00 0.00 0.00 0.00
0.00 0.00 0.00 0.00 0.00 0.00 0.00 0.00 0.00 0.00 0.00 0.00 0.00 0.00 0.00 0.00 0.00 0.00 0.00 0.00 0.00 0.00 0.00 0.00 0.00 0.00 0.00 0.00 0.00 0.00 0.00 0.00 0.00 0.00 0.00 0.00 0.00 0.00 0.00 0.00 0.00 0.00 0.00 0.00 0.00 0.00 0.00 0.00 0.00
0.00 0.00 0.00 0.00 0.00 0.00 0.00 0.00 0.00 0.00 0.00 0.00 0.00 0.00 0.00 0.00 0.00 0.00 0.00 0.00 0.00 0.00 0.00 0.00 0.00 0.00 0.00 0.00 0.00 0.00 0.00 0.00 0.00 0.00 0.00 0.00 0.00 0.00 0.00 0.00 0.00 0.00 0.00 0.00 0.00 0.00 0.00 0.00 0.00
0.00 0.00 0.00 0.00 0.00 0.00 0.00 0.00 0.00 0.00 0.00 0.00 0.00 0.00 0.00 0.00 0.00 0.00 0.00 0.00 0.00 0.00 0.00 0.00 0.00 0.00 0.00 0.00 0.00 0.00 0.00 0.00 0.00 0.00 0.00 0.00 0.00 0.00 0.00 0.00 0.00 0.00 0.00 0.00 0.00 0.00 0.00 0.00 0.00
0.00 0.00 0.00 0.00 0.00 0.00 0.00 0.00 0.00 0.00 0.00 0.00 0.00 0.00 0.00 0.00 0.00 0.00 0.00 0.00 0.00 0.00 0.00 0.00 0.00 0.00 0.00 0.00 0.00 0.00 0.00 0.00 0.00 0.00 0.00 0.00 0.00 0.00 0.00 0.00 0.00 0.00 0.00 0.00 0.00 0.00 0.00 0.00 0.00
0.00 0.00 0.00 0.00 0.00 0.00 0.00 0.00 0.00 0.00 0.00 0.00 0.00 0.00 0.00 0.00 0.00 0.00 0.00 0.00 0.00 0.00 0.00 0.00 0.00 0.00 0.00 0.00 0.00 0.00 0.00 0.00 0.00 0.00 0.00 0.00 0.00 0.00 0.00 0.00 0.00 0.00 0.00 0.00 0.00 0.00 0.00 0.00 0.00
0.00 0.00 0.00 0.00 0.00 0.00 0.00 0.00 0.00 0.00 0.00 0.00 0.00 0.00 0.00 0.00 0.00 0.00 0.00 0.00 0.00 0.00 0.00 0.00 0.00 0.00 0.00 0.00 0.00 0.00 0.00 0.00 0.00 0.00 0.00 0.00 0.00 0.00 0.00 0.00 0.00 0.00 0.00 0.00 0.00 0.00 0.00 0.00 0.00
0.00 0.00 0.00 0.00 0.00 0.00 0.00 0.00 0.00 0.00 0.00 0.00 0.00 0.00 0.00 0.00 0.00 0.00 0.00 0.00 0.00 0.00 0.00 0.00 0.00 0.00 0.00 0.00 0.00 0.00 0.00 0.00 0.00 0.00 0.00 0.00 0.00 0.00 0.00 0.00 0.00 0.00 0.00 0.00 0.00 0.00 0.00 0.00 0.00
MSLP
1011.42 1011.87 1012.57 1013.44 1014.36 1015.21 1015.88 1016.30 1016.47 1016.41 1016.24 1016.04 1015.90 1015.89 1016.02 1016.26 1016.56 1016.86 1017.12 1017.32 1017.47 1017.61 1017.77 1018.00 1018.30 1018.66 1019.05 1019.40 1019.70 1019.92 1020.06 1020.15 1020.23 1020.33 1020.47 1020.66 1020.88 1021.08 1021.24 1021.33 1021.34 1021.29 1021.20 1021.11 1021.03 1020.99 1020.97 1020.95 1020.92
1011.70 1012.27 1013.05 1013.94 1014.83 1015.60 1016.16 1016.46 1016.52 1016.37 1016.13 1015.89 1015.73 1015.71 1015.83 1016.06 1016.35 1016.65 1016.92 1017.14 1017.34 1017.54 1017.77 1018.07 1018.43 1018.83 1019.22 1019.58 1019.87 1020.07 1020.22 1020.32 1020.43 1020.58 1020.78 1021.01 1021.26 1021.49 1021.65 1021.73 1021.72 1021.65 1021.55 1021.45 1021.37 1021.33 1021.30 1021.28 1021.23
1012.09 1012.74 1013.55 1014.40 1015.20 1015.85 1016.26 1016.43 1016.37 1016.16 1015.89 1015.65 1015.51 1015.52 1015.66 1015.90 1016.20 1016.49 1016.77 1017.01 1017.24 1017.49 1017.80 1018.16 1018.57 1019.01 1019.43 1019.79 1020.07 1020.27 1020.41 1020.52 1020.65 1020.82 1021.05 1021.31 1021.57 1021.79 1021.93 1021.99 1021.95 1021.86 1021.74 1021.63 1021.56 1021.52 1021.50 1021.48 1021.44
1012.54 1013.24 1014.03 1014.81 1015.48 1015.96 1016.22 1016.25 1016.09 1015.84 1015.57 1015.38 1015.30 1015.36 1015.55 1015.81 1016.11 1016.41 1016.67 1016.92 1017.18 1017.47 1017.83 1018.25 1018.72 1019.20 1019.64 1020.01 1020.29 1020.48 1020.61 1020.72 1020.85 1021.03 1021.26 1021.52 1021.77 1021.97 1022.09 1022.11 1022.05 1021.93 1021.80 1021.69 1021.62 1021.60 1021.60 1021.60 1021.58
1013.05 1013.75 1014.48 1015.14 1015.65 1015.97 1016.07 1015.97 1015.75 1015.49 1015.26 1015.13 1015.14 1015.28 1015.52 1015.81 1016.11 1016.38 1016.63 1016.87 1017.13 1017.45 1017.85 1018.32 1018.83 1019.35 1019.82 1020.21 1020.49 1020.67 1020.79 1020.90 1021.02 1021.19 1021.41 1021.66 1021.89 1022.06 1022.15 1022.14 1022.05 1021.92 1021.78 1021.68 1021.62 1021.62 1021.64 1021.67 1021.67
1013.57 1014.24 1014.88 1015.41 1015.76 1015.91 1015.87 1015.69 1015.43 1015.18 1015.02 1014.98 1015.08 1015.30 1015.58 1015.89 1016.18 1016.42 1016.64 1016.85 1017.09 1017.42 1017.84 1018.34 1018.90 1019.45 1019.95 1020.34 1020.63 1020.81 1020.92 1021.01 1021.13 1021.29 1021.49 1021.72 1021.93 1022.08 1022.15 1022.13 1022.03 1021.89 1021.75 1021.66 1021.62 1021.63 1021.67 1021.71 1021.73
1014.08 1014.70 1015.24 1015.63 1015.83 1015.84 1015.69 1015.45 1015.18 1014.97 1014.89 1014.94 1015.13 1015.42 1015.74 1016.05 1016.31 1016.51 1016.67 1016.84 1017.06 1017.37 1017.79 1018.32 1018.89 1019.47 1019.98 1020.39 1020.68 1020.85 1020.97 1021.05 1021.16 1021.32 1021.51 1021.73 1021.93 1022.08 1022.14 1022.11 1022.01 1021.88 1021.76 1021.67 1021.63 1021.65 1021.70 1021.74 1021.76
1014.56 1015.11 1015.54 1015.81 1015.88 1015.79 1015.57 1015.29 1015.04 1014.89 1014.88 1015.02 1015.28 1015.61 1015.95 1016.24 1016.46 1016.61 1016.71 1016.83 1017.01 1017.29 1017.71 1018.23 1018.81 1019.39 1019.91 1020.33 1020.62 1020.80 1020.92 1021.01 1021.12 1021.28 1021.48 1021.70 1021.90 1022.05 1022.12 1022.10 1022.02 1021.91 1021.79 1021.71 1021.67 1021.68 1021.72 1021.75 1021.76
1014.99 1015.46 1015.79 1015.95 1015.93 1015.77 1015.51 1015.23 1015.02 1014.92 1014.97 1015.16 1015.46 1015.81 1016.15 1016.41 1016.59 1016.68 1016.73 1016.79 1016.93 1017.19 1017.58 1018.09 1018.66 1019.23 1019.75 1020.16 1020.46 1020.65 1020.78 1020.89 1021.02 1021.18 1021.39 1021.62 1021.84 1022.00 1022.09 1022.10 1022.04 1021.94 1021.84 1021.76 1021.72 1021.71 1021.72 1021.72 1021.70
1015.36 1015.75 1015.99 1016.07 1015.99 1015.78 1015.51 1015.25 1015.06 1015.01 1015.10 1015.32 1015.63 1015.97 1016.27 1016.50 1016.63 1016.68 1016.68 1016.71 1016.82 1017.05 1017.42 1017.90 1018.45 1019.00 1019.50 1019.91 1020.22 1020.42 1020.57 1020.70 1020.85 1021.04 1021.26 1021.51 1021.74 1021.92 1022.03 1022.06 1022.03 1021.95 1021.86 1021.79 1021.74 1021.71 1021.69 1021.66 1021.61
1015.67 1015.98 1016.14 1016.16 1016.03 1015.81 1015.54 1015.30 1015.14 1015.10 1015.20 1015.41 1015.69 1016.00 1016.26 1016.45 1016.54 1016.56 1016.55 1016.57 1016.66 1016.88 1017.22 1017.67 1018.19 1018.72 1019.20 1019.61 1019.91 1020.14 1020.31 1020.47 1020.65 1020.85 1021.10 1021.35 1021.60 1021.79 1021.92 1021.97 1021.96 1021.91 1021.84 1021.78 1021.72 1021.68 1021.64 1021.58 1021.50
1015.93 1016.16 1016.26 1016.22 1016.06 1015.83 1015.57 1015.34 1015.18 1015.13 1015.20 1015.37 1015.60 1015.85 1016.07 1016.22 1016.29 1016.31 1016.31 1016.34 1016.44 1016.65 1016.98 1017.41 1017.90 1018.40 1018.87 1019.27 1019.59 1019.84 1020.04 1020.23 1020.43 1020.66 1020.91 1021.17 1021.42 1021.62 1021.76 1021.83 1021.85 1021.82 1021.78 1021.73 1021.69 1021.65 1021.60 1021.53 1021.42
1016.16 1016.31 1016.34 1016.26 1016.09 1015.84 1015.58 1015.34 1015.15 1015.06 1015.07 1015.17 1015.33 1015.51 1015.67 1015.80 1015.87 1015.91 1015.94 1016.01 1016.15 1016.37 1016.70 1017.12 1017.59 1018.07 1018.53 1018.93 1019.27 1019.54 1019.78 1020.00 1020.23 1020.47 1020.73 1020.99 1021.22 1021.42 1021.57 1021.66 1021.70 1021.71 1021.70 1021.69 1021.68 1021.65 1021.61 1021.53 1021.42
1016.38 1016.46 1016.44 1016.31 1016.11 1015.85 1015.56 1015.28 1015.04 1014.87 1014.80 1014.80 1014.86 1014.97 1015.09 1015.20 1015.30 1015.38 1015.47 1015.60 1015.78 1016.05 1016.39 1016.80 1017.26 1017.74 1018.19 1018.61 1018.98 1019.29 1019.57 1019.83 1020.09 1020.34 1020.59 1020.84 1021.06 1021.25 1021.40 1021.50 1021.57 1021.62 1021.66 1021.70 1021.72 1021.73 1021.71 1021.65 1021.53
1016.61 1016.64 1016.56 1016.40 1016.16 1015.85 1015.52 1015.17 1014.85 1014.59 1014.40 1014.29 1014.26 1014.29 1014.38 1014.49 1014.62 1014.76 1014.93 1015.12 1015.37 1015.67 1016.04 1016.46 1016.92 1017.40 1017.88 1018.32 1018.73 1019.10 1019.43 1019.73 1020.02 1020.28 1020.54 1020.77 1020.98 1021.15 1021.30 1021.42 1021.52 1021.61 1021.70 1021.79 1021.87 1021.92 1021.93 1021.88 1021.77
1016.89 1016.86 1016.74 1016.54 1016.26 1015.90 1015.49 1015.06 1014.64 1014.25 1013.93 1013.70 1013.57 1013.54 1013.60 1013.72 1013.90 1014.11 1014.35 1014.62 1014.92 1015.27 1015.66 1016.10 1016.58 1017.07 1017.58 1018.07 1018.54 1018.97 1019.36 1019.71 1020.03 1020.32 1020.57 1020.80 1021.00 1021.17 1021.32 1021.45 1021.58 1021.72 1021.85 1021.99 1022.11 1022.21 1022.25 1022.22 1022.11
1017.21 1017.15 1017.00 1016.76 1016.43 1016.01 1015.52 1014.98 1014.43 1013.90 1013.45 1013.10 1012.88 1012.79 1012.83 1012.98 1013.20 1013.48 1013.80 1014.13 1014.49 1014.87 1015.29 1015.74 1016.23 1016.76 1017.30 1017.85 1018.38 1018.88 1019.34 1019.76 1020.12 1020.43 1020.69 1020.92 1021.11 1021.28 1021.44 1021.60 1021.76 1021.93 1022.11 1022.29 1022.45 1022.57 1022.63 1022.62 1022.51
1017.53 1017.47 1017.31 1017.05 1016.68 1016.20 1015.62 1014.96 1014.28 1013.61 1013.02 1012.56 1012.26 1012.13 1012.16 1012.33 1012.60 1012.94 1013.31 1013.70 1014.10 1014.50 1014.93 1015.39 1015.90 1016.45 1017.04 1017.64 1018.24 1018.82 1019.35 1019.82 1020.23 1020.57 1020.86 1021.09 1021.29 1021.48 1021.65 1021.83 1022.02 1022.22 1022.43 1022.63 1022.81 1022.95 1023.03 1023.02 1022.93
1017.83 1017.79 1017.66 1017.40 1017.00 1016.47 1015.80 1015.03 1014.21 1013.41 1012.69 1012.13 1011.75 1011.58 1011.61 1011.81 1012.13 1012.52 1012.94 1013.37 1013.78 1014.19 1014.62 1015.08 1015.59 1016.16 1016.78 1017.43 1018.09 1018.74 1019.33 1019.86 1020.31 1020.69 1021.00 1021.25 1021.47 1021.68 1021.88 1022.08 1022.30 1022.52 1022.75 1022.96 1023.15 1023.29 1023.38 1023.38 1023.30
1018.07 1018.09 1018.00 1017.77 1017.38 1016.80 1016.05 1015.18 1014.24 1013.31 1012.48 1011.83 1011.39 1011.20 1011.23 1011.46 1011.82 1012.25 1012.70 1013.14 1013.56 1013.96 1014.37 1014.81 1015.30 1015.87 1016.51 1017.19 1017.90 1018.59 1019.23 1019.81 1020.29 1020.70 1021.04 1021.32 1021.57 1021.81 1022.04 1022.28 1022.52 1022.76 1023.00 1023.22 1023.40 1023.54 1023.63 1023.65 1023.58
1018.20 1018.31 1018.31 1018.14 1017.76 1017.17 1016.36 1015.40 1014.35 1013.32 1012.39 1011.66 1011.18 1010.97 1011.02 1011.26 1011.66 1012.12 1012.59 1013.03 1013.43 1013.80 1014.17 1014.57 1015.04 1015.58 1016.21 1016.90 1017.62 1018.33 1019.00 1019.60 1020.12 1020.55 1020.92 1021.23 1021.52 1021.79 1022.07 1022.34 1022.62 1022.89 1023.13 1023.35 1023.53 1023.67 1023.76 1023.79 1023.77
1018.24 1018.46 1018.56 1018.47 1018.14 1017.54 1016.70 1015.67 1014.53 1013.41 1012.40 1011.61 1011.10 1010.87 1010.93 1011.20 1011.61 1012.09 1012.56 1012.99 1013.36 1013.69 1014.00 1014.35 1014.76 1015.27 1015.86 1016.53 1017.24 1017.94 1018.61 1019.22 1019.75 1020.20 1020.59 1020.94 1021.27 1021.60 1021.92 1022.25 1022.56 1022.85 1023.12 1023.34 1023.52 1023.66 1023.76 1023.83 1023.85
1018.19 1018.54 1018.76 1018.76 1018.48 1017.90 1017.04 1015.96 1014.76 1013.56 1012.49 1011.65 1011.10 1010.86 1010.92 1011.20 1011.63 1012.11 1012.58 1012.98 1013.31 1013.58 1013.84 1014.12 1014.46 1014.91 1015.45 1016.07 1016.74 1017.42 1018.07 1018.67 1019.20 1019.67 1020.08 1020.47 1020.85 1021.22 1021.61 1021.99 1022.35 1022.68 1022.97 1023.20 1023.39 1023.54 1023.66 1023.75 1023.83
1018.12 1018.58 1018.91 1019.00 1018.78 1018.23 1017.36 1016.24 1014.99 1013.73 1012.61 1011.72 1011.14 1010.89 1010.94 1011.22 1011.64 1012.12 1012.57 1012.94 1013.23 1013.45 1013.63 1013.85 1014.12 1014.50 1014.97 1015.53 1016.15 1016.79 1017.41 1017.99 1018.52 1018.99 1019.43 1019.85 1020.28 1020.72 1021.16 1021.60 1022.01 1022.38 1022.70 1022.96 1023.16 1023.32 1023.45 1023.58 1023.69
1018.05 1018.62 1019.04 1019.20 1019.03 1018.50 1017.63 1016.49 1015.20 1013.90 1012.73 1011.81 1011.19 1010.92 1010.94 1011.20 1011.60 1012.05 1012.47 1012.81 1013.06 1013.23 1013.36 1013.51 1013.72 1014.03 1014.44 1014.94 1015.51 1016.10 1016.69 1017.24 1017.76 1018.24 1018.70 1019.16 1019.64 1020.13 1020.63 1021.12 1021.59 1022.00 1022.35 1022.63 1022.85 1023.02 1023.17 1023.30 1023.44
1018.04 1018.67 1019.14 1019.35 1019.21 1018.70 1017.82 1016.67 1015.36 1014.03 1012.83 1011.86 1011.21 1010.90 1010.88 1011.10 1011.47 1011.88 1012.26 1012.57 1012.77 1012.90 1013.00 1013.10 1013.27 1013.53 1013.88 1014.33 1014.85 1015.40 1015.95 1016.49 1017.00 1017.49 1017.97 1018.47 1018.98 1019.52 1020.07 1020.61 1021.12 1021.57 1021.94 1022.24 1022.47 1022.64 1022.79 1022.92 1023.07
1018.08 1018.73 1019.22 1019.43 1019.30 1018.78 1017.91 1016.75 1015.43 1014.09 1012.86 1011.87 1011.18 1010.81 1010.74 1010.90 1011.21 1011.58 1011.92 1012.18 1012.36 1012.47 1012.55 1012.63 1012.77 1013.00 1013.32 1013.74 1014.22 1014.73 1015.26 1015.79 1016.30 1016.80 1017.31 1017.83 1018.37 1018.94 1019.52 1020.09 1020.62 1021.09 1021.48 1021.78 1022.01 1022.18 1022.31 1022.43 1022.55
1018.14 1018.76 1019.21 1019.40 1019.24 1018.72 1017.84 1016.69 1015.38 1014.05 1012.82 1011.80 1011.08 1010.66 1010.52 1010.61 1010.85 1011.16 1011.45 1011.69 1011.85 1011.96 1012.03 1012.12 1012.26 1012.48 1012.79 1013.19 1013.65 1014.15 1014.66 1015.18 1015.70 1016.20 1016.72 1017.26 1017.82 1018.40 1018.99 1019.57 1020.10 1020.56 1020.95 1021.25 1021.46 1021.61 1021.72 1021.81 1021.89
1018.15 1018.69 1019.07 1019.19 1018.99 1018.44 1017.58 1016.45 1015.18 1013.87 1012.67 1011.66 1010.91 1010.44 1010.24 1010.26 1010.42 1010.66 1010.91 1011.12 1011.28 1011.40 1011.50 1011.61 1011.77 1012.01 1012.32 1012.71 1013.16 1013.65 1014.16 1014.67 1015.18 1015.70 1016.22 1016.76 1017.32 1017.89 1018.47 1019.02 1019.53 1019.98 1020.35 1020.62 1020.82 1020.95 1021.03 1021.08 1021.12
1018.05 1018.47 1018.73 1018.76 1018.50 1017.93 1017.09 1016.01 1014.80 1013.57 1012.42 1011.43 1010.68 1010.18 1009.92 1009.87 1009.96 1010.14 1010.34 1010.54 1010.71 1010.85 1010.98 1011.13 1011.33 1011.58 1011.91 1012.30 1012.74 1013.22 1013.71 1014.22 1014.73 1015.24 1015.76 1016.29 1016.83 1017.38 1017.93 1018.44 1018.92 1019.33 1019.66 1019.91 1020.09 1020.19 1020.25 1020.27 1020.28
Thickness
5769 5773 5775 5764 5742 5731 5730 5741 5748 5744 5745 5749 5751 5749 5740 5732 5722 5709 5730 5740 5737 5730 5723 5718 5715 5712 5709 5707 5705 5703 5700 5698 5697 5695 5694 5693 5692 5691 5690 5689 5688 5688 5687 5687 5686 5686 5686 5685 5685
5770 5777 5769 5753 5733 5722 5728 5744 5742 5743 5746 5751 5751 5750 5743 5735 5736 5730 5734 5737 5735 5729 5721 5717 5712 5709 5707 5704 5701 5699 5696 5694 5693 5691 5689 5688 5686 5685 5684 5683 5682 5681 5681 5680 5680 5679 5679 5679 5678
5770 5775 5758 5746 5737 5731 5733 5745 5744 5748 5752 5751 5748 5748 5742 5735 5739 5735 5736 5737 5733 5728 5721 5715 5710 5707 5704 5701 5698 5695 5693 5691 5689 5687 5685 5683 5681 5680 5678 5677 5676 5675 5675 5674 5673 5673 5673 5672 5672
5770 5763 5757 5742 5735 5742 5747 5748 5749 5746 5748 5751 5748 5741 5741 5744 5743 5739 5738 5737 5732 5726 5719 5712 5708 5705 5701 5698 5695 5692 5690 5687 5685 5682 5680 5678 5676 5675 5673 5672 5671 5670 5669 5668 5668 5667 5667 5666 5666
5767 5753 5740 5735 5738 5748 5753 5754 5753 5746 5745 5748 5746 5738 5732 5741 5744 5740 5738 5736 5731 5726 5718 5711 5706 5702 5699 5695 5692 5689 5686 5683 5680 5678 5676 5674 5672 5670 5668 5667 5665 5664 5663 5663 5662 5662 5661 5661 5660
5753 5749 5732 5729 5737 5747 5752 5754 5752 5748 5747 5748 5745 5739 5730 5740 5739 5737 5737 5735 5732 5725 5717 5709 5704 5700 5696 5693 5689 5686 5683 5680 5677 5674 5672 5669 5667 5666 5664 5662 5660 5659 5658 5657 5657 5656 5656 5655 5655
5744 5737 5731 5738 5736 5740 5749 5755 5749 5745 5744 5745 5747 5737 5730 5735 5738 5738 5736 5734 5730 5724 5716 5707 5702 5698 5694 5690 5686 5683 5679 5676 5673 5670 5668 5665 5663 5661 5659 5657 5656 5654 5653 5652 5651 5651 5650 5650 5650
5748 5738 5734 5737 5736 5738 5750 5751 5751 5745 5743 5751 5749 5735 5727 5732 5738 5737 5734 5731 5727 5722 5715 5707 5701 5696 5691 5687 5683 5680 5676 5673 5670 5667 5664 5661 5659 5657 5655 5653 5651 5650 5648 5647 5646 5646 5645 5645 5645
5749 5727 5724 5735 5736 5740 5748 5745 5747 5750 5745 5747 5748 5740 5736 5737 5736 5731 5727 5724 5721 5718 5714 5708 5702 5696 5691 5686 5681 5677 5673 5670 5666 5663 5661 5658 5656 5654 5651 5649 5647 5646 5644 5643 5642 5641 5641 5640 5640
5737 5718 5727 5741 5743 5741 5744 5742 5743 5740 5736 5737 5739 5738 5737 5734 5731 5725 5721 5718 5716 5713 5711 5708 5702 5696 5691 5685 5679 5675 5671 5667 5664 5661 5658 5655 5653 5651 5648 5645 5643 5641 5640 5639 5638 5637 5636 5636 5636
5735 5726 5734 5740 5743 5740 5737 5738 5743 5734 5727 5734 5735 5733 5732 5730 5727 5723 5721 5719 5716 5713 5709 5706 5702 5695 5690 5684 5678 5674 5669 5665 5662 5659 5655 5653 5650 5647 5644 5642 5639 5638 5636 5635 5634 5633 5632 5632 5631
5730 5733 5736 5736 5737 5734 5731 5734 5734 5733 5733 5741 5741 5738 5732 5727 5725 5723 5721 5720 5716 5712 5708 5704 5700 5694 5688 5683 5678 5673 5668 5664 5660 5656 5653 5650 5647 5644 5641 5638 5636 5634 5632 5631 5629 5628 5628 5627 5627
5724 5727 5733 5735 5732 5730 5729 5727 5728 5732 5740 5743 5741 5736 5731 5728 5726 5726 5724 5721 5717 5711 5706 5702 5698 5692 5687 5682 5676 5671 5667 5662 5658 5653 5650 5647 5643 5640 5637 5634 5632 5630 5628 5626 5624 5623 5623 5622 5621
5722 5723 5726 5729 5728 5728 5723 5723 5724 5731 5740 5738 5734 5731 5729 5728 5727 5724 5722 5719 5715 5710 5705 5701 5696 5690 5685 5679 5674 5669 5665 5660 5655 5650 5646 5643 5639 5635 5632 5629 5627 5624 5622 5621 5619 5618 5617 5615 5614
5719 5712 5716 5723 5724 5725 5718 5712 5722 5735 5737 5732 5731 5730 5729 5729 5727 5724 5722 5718 5715 5710 5705 5699 5693 5688 5683 5677 5672 5666 5661 5656 5651 5647 5643 5639 5635 5631 5628 5624 5622 5619 5617 5615 5613 5612 5610 5609 5608
5709 5702 5698 5717 5720 5718 5706 5699 5725 5738 5733 5728 5728 5728 5727 5727 5727 5725 5723 5718 5714 5709 5703 5697 5692 5686 5680 5675 5669 5664 5659 5653 5648 5643 5639 5634 5630 5627 5623 5619 5616 5614 5611 5609 5607 5605 5603 5601 5600
5694 5690 5696 5707 5717 5715 5705 5701 5720 5731 5729 5725 5726 5727 5727 5726 5725 5724 5722 5717 5713 5707 5701 5695 5689 5683 5678 5672 5666 5660 5655 5650 5645 5640 5635 5630 5626 5622 5618 5615 5612 5609 5606 5603 5601 5598 5595 5593 5591
5683 5687 5692 5695 5709 5708 5700 5703 5716 5725 5726 5724 5726 5727 5726 5725 5724 5723 5720 5716 5711 5705 5699 5693 5686 5680 5674 5668 5662 5656 5651 5646 5641 5636 5631 5626 5622 5618 5614 5610 5607 5603 5600 5596 5593 5590 5588 5585 5583
5686 5683 5681 5692 5707 5701 5696 5702 5714 5723 5724 5723 5723 5724 5724 5724 5726 5723 5718 5712 5706 5700 5695 5689 5682 5676 5671 5664 5657 5650 5645 5641 5636 5632 5627 5622 5618 5614 5609 5605 5601 5597 5593 5589 5586 5583 5579 5576 5574
5679 5674 5677 5689 5701 5694 5692 5700 5715 5723 5724 5724 5723 5722 5723 5722 5720 5717 5713 5707 5701 5695 5690 5685 5680 5673 5667 5662 5655 5649 5642 5637 5632 5627 5623 5618 5613 5609 5604 5599 5595 5591 5586 5582 5578 5574 5570 5567 5564
5672 5670 5673 5675 5683 5690 5686 5690 5710 5721 5726 5725 5724 5723 5722 5719 5715 5711 5706 5701 5696 5690 5686 5682 5677 5670 5664 5658 5651 5644 5637 5631 5625 5621 5617 5613 5609 5604 5599 5594 5589 5584 5580 5574 5570 5566 5562 5556 5553
5663 5677 5675 5671 5662 5664 5676 5661 5696 5711 5712 5715 5716 5716 5715 5716 5713 5708 5703 5696 5691 5687 5682 5677 5672 5666 5659 5654 5647 5640 5633 5626 5622 5618 5612 5608 5603 5598 5593 5588 5583 5578 5573 5568 5563 5559 5554 5549 5543
5670 5672 5669 5664 5656 5653 5667 5658 5683 5706 5702 5707 5710 5710 5711 5710 5707 5704 5699 5693 5688 5683 5677 5671 5666 5660 5655 5649 5643 5636 5630 5624 5619 5613 5607 5602 5597 5592 5587 5582 5576 5571 5566 5561 5556 5551 5546 5540 5535
5669 5663 5660 5657 5648 5639 5666 5660 5671 5694 5701 5703 5705 5705 5705 5704 5701 5698 5694 5689 5682 5676 5670 5665 5660 5655 5650 5644 5639 5633 5626 5620 5614 5608 5602 5596 5591 5586 5581 5575 5570 5564 5559 5553 5548 5543 5537 5532 5527
5656 5643 5633 5632 5625 5639 5671 5663 5672 5699 5704 5703 5700 5699 5699 5697 5693 5689 5685 5680 5675 5669 5663 5658 5653 5649 5644 5639 5634 5629 5623 5617 5611 5605 5598 5591 5585 5579 5574 5569 5563 5558 5552 5546 5541 5535 5529 5524 5518
5647 5644 5630 5626 5633 5648 5659 5655 5679 5700 5703 5702 5699 5696 5694 5691 5686 5683 5680 5675 5669 5664 5658 5653 5648 5643 5639 5634 5629 5624 5619 5613 5607 5601 5594 5587 5581 5575 5569 5563 5557 5551 5545 5539 5533 5526 5521 5516 5510
5645 5641 5650 5636 5638 5634 5650 5672 5687 5696 5693 5693 5690 5689 5686 5684 5682 5678 5675 5670 5665 5660 5655 5649 5644 5638 5634 5629 5624 5619 5614 5608 5602 5596 5590 5583 5577 5570 5563 5557 5550 5544 5538 5531 5525 5518 5512 5507 5501
5648 5646 5636 5625 5618 5618 5644 5657 5664 5674 5679 5683 5682 5681 5681 5679 5677 5674 5670 5665 5661 5657 5651 5645 5640 5634 5629 5624 5619 5614 5608 5603 5597 5590 5584 5577 5571 5564 5557 5550 5543 5536 5529 5523 5516 5510 5504 5498 5492
5635 5635 5636 5632 5632 5621 5623 5647 5679 5679 5680 5678 5678 5678 5677 5674 5671 5667 5664 5661 5656 5651 5646 5640 5635 5629 5624 5618 5613 5608 5603 5597 5591 5584 5578 5571 5564 5557 5550 5543 5535 5528 5521 5515 5508 5501 5495 5488 5482
5641 5638 5633 5621 5625 5630 5622 5640 5684 5683 5680 5678 5675 5674 5673 5671 5667 5662 5658 5654 5649 5644 5640 5635 5630 5624 5619 5613 5607 5602 5596 5590 5584 5577 5571 5564 5557 5550 5542 5535 5527 5520 5513 5506 5499 5492 5486 5479 5472